Location: ???? ???? ?????
(31.2680°N, 31.7283°E)
Time: 03:30:06
(UTC+00:00)

Cosmos-2242 - Pass Details

Date: 13 July 2020
Orbit: 592 x 616 km, 82.5° (Epoch: 11 August)

Event Time Altitude Azimuth Distance (km) Brightness Sun altitude
Rises 17:42:05 0° 4° (N) 2,880 6.9 -8.8°
Reaches altitude 10° 17:44:27 10° 13° (NNE) 1,974 5.9 -9.3°
Maximum altitude 17:48:29 36° 80° (E) 980 3.7 -10.0°
Enters shadow 17:52:03 13° 145° (SE) 1,803 4.9 -10.6°
